User: anonymous   Login
Location: Oshawa
(43.9000°N, 78.8670°W)
Time: 07:36:26
(UTC-04:00)
Language:

Altair - Orbit

View from above orbital plane
View from above orbital plane
View from above satellite
View from above satellite

Ground track
Ground track

The orbit data is extracted from the following two-line orbital elements,

1    50U 60009B   16238.82990954 -.00000064 +00000-0 +20441-3 0  9991
2    50 047.2307 120.3598 0113301 138.1708 222.7806 12.20096703500311
Epoch (UTC): 25 August 2016 19:55:04
Eccentricity: 0.0113301
inclination: 47.2307°
perigee height: 1502 km
apogee height: 1682 km
right ascension of ascending node: 120.3598°
argument of perigee: 138.1708°
revolutions per day: 12.20096703
mean anomaly at epoch: 222.7806°
orbit number at epoch: 50031

The dashed part of the orbit path shows where the satellite is in the earth's shadow,  

DLR